Regional Weather Roundup
Issued by NWS

Home | Current Version | Previous Version | Text Only | Print | Product List | Glossary On
Versions: 1 2 3 4 5 6 7 8 9 10 11 12 13 14 15 16 17 18 19 20 21 22 23 24 25 26 27 28 29 30 31 32 33 34 35 36 37 38 39 40 41 42 43 44 45 46 47 48 49 50
000
ASUS43 KDTX 171810
RWRMI
MICHIGAN HOURLY REGIONAL WEATHER ROUNDUP
NATIONAL WEATHER SERVICE DETROIT/PONTIAC MI
200 PM EDT TUE OCT 17 2017

NOTE: "FAIR" INDICATES FEW OR NO CLOUDS BELOW 12,000 FEET WITH NO
SIGNIFICANT WEATHER AND/OR OBSTRUCTION TO VISIBILITY.

MIZ047>049-052>055-059>063-066>070-074>076-081>083-171900-
SOUTHEAST LOWER MICHIGAN

CITY           SKY/WX    TMP DP  RH WIND       PRES   REMARKS
ADRIAN         SUNNY     65  39  38 W14G23    30.22F
6HR MIN TEMP:  39; 6HR MAX TEMP:  65;

ALMA           SUNNY     67  43  41 SW21G35   30.09F
ANN ARBOR      SUNNY     67  42  40 SW16G24   30.18F
BAD AXE        SUNNY     66  40  38 W20G30    30.06F
CARO           SUNNY     68  40  36 SW18G29   30.07F
DETROIT CITY   SUNNY     66  40  38 SW17G25   30.17F
6HR MIN TEMP:  45; 6HR MAX TEMP:  66;

DETROIT        PTSUNNY   67  41  38 SW22      30.19F
6HR MIN TEMP:  43; 6HR MAX TEMP:  67; 6HR PCP: TRACE;

FLINT          SUNNY     67  40  37 SW23G32   30.12F
6HR MIN TEMP:  46; 6HR MAX TEMP:  67;

GROSSE ILE     SUNNY     66  41  40 SW14G20   30.18F
6HR MIN TEMP:  46; 6HR MAX TEMP:  66;

HILLSDALE      SUNNY     64  37  36 SW14G23   30.20F
HOWELL         SUNNY     67  40  37 SW17G30   30.15F
6HR MIN TEMP:  45; 6HR MAX TEMP:  67;


CITY           SKY/WX    TMP DP  RH WIND       PRES   REMARKS
JACKSON        SUNNY     65  41  41 SW21G26   30.18F
6HR MIN TEMP:  46; 6HR MAX TEMP:  65;

LAMBERTVILLE   SUNNY     67  39  35 SW9G21    30.21F
6HR MIN TEMP:  46; 6HR MAX TEMP:  68;

LANSING        SUNNY     67  40  37 SW21G29   30.14F
6HR MIN TEMP:  46; 6HR MAX TEMP:  67;

LAPEER         FAIR      67  41  38 SW17G26   30.11F
6HR MIN TEMP:  45; 6HR MAX TEMP:  67;

MASON          SUNNY     67  41  38 SW12G18   30.16F
MONROE         SUNNY     67  39  35 SW17G24   30.19F
6HR MIN TEMP:  45; 6HR MAX TEMP:  67;

MT. CLEMENS    PTSUNNY   66  42  41 SW15      30.13F
6HR MIN TEMP:  45; 6HR MAX TEMP:  66;

PONTIAC        PTSUNNY   66  41  40 SW15G24   30.14F
6HR MIN TEMP:  44; 6HR MAX TEMP:  66;

PORT HOPE        N/A     66  43  43 W9G24     30.02F
6HR MIN TEMP:  47; 6HR MAX TEMP:  66;

PORT HURON     SUNNY     66  39  37 SW10G20   30.13F
TRI CITIES     SUNNY     67  46  47 W20G29    30.07F
6HR MIN TEMP:  46; 6HR MAX TEMP:  67;

MIDLAND        FAIR      68  47  47 SW20G25   30.06F
6HR MIN TEMP:  44; 6HR MAX TEMP:  68;

TROY           SUNNY     66  38  36 SW17      30.17F
SAGINAW HB     SUNNY     66  43  42 SW22      30.06F
$$
MIZ043>046-050>051-056>058-064>065-071>073-077>080-171900-
SOUTHWEST LOWER MICHIGAN

CITY           SKY/WX    TMP DP  RH WIND       PRES   REMARKS
BATTLE CREEK   SUNNY     66  42  41 MISG      30.18F
6HR MIN TEMP:  44; 6HR MAX TEMP:  66;

BENTON HARBOR  SUNNY     66  42  41 SW21G28   30.18F
6HR MIN TEMP:  47; 6HR MAX TEMP:  66; 6HR PCP: TRACE;

BIG RAPIDS     SUNNY     64  44  47 SW15G25   30.07F
6HR MIN TEMP:  50; 6HR MAX TEMP:  64;

COLDWATER      SUNNY     66  38  35 SW18G24   30.20F
6HR MIN TEMP:  44; 6HR MAX TEMP:  66;

FREMONT        FAIR      64  46  52 SW15G21   30.09F
6HR MIN TEMP:  46; 6HR MAX TEMP:  64;

HOLLAND        SUNNY     63  48  58 SW23G33   30.15F
6HR MIN TEMP:  50; 6HR MAX TEMP:  63;

GRAND RAPIDS   PTSUNNY   66  47  50 SW22      30.14F
6HR MIN TEMP:  48; 6HR MAX TEMP:  67;

IONIA          FAIR      68  41  37 SW20G26   30.11F
6HR MIN TEMP:  46; 6HR MAX TEMP:  69;

KALAMAZOO      SUNNY     67  40  37 SW16G24   30.19F
6HR MIN TEMP:  44; 6HR MAX TEMP:  67;

LUDINGTON      SUNNY     61  47  59 W9G21     30.08S
6HR MIN TEMP:  57; 6HR MAX TEMP:  61;

MARSHALL       SUNNY     65  42  42 SW8G23    30.18F
6HR MIN TEMP:  44; 6HR MAX TEMP:  65;

MOUNT PLEASANT SUNNY     69  46  43 W13G23    30.06F
6HR MIN TEMP:  50; 6HR MAX TEMP:  69;

MUSKEGON       MOSUNNY   65  48  54 SW21      30.13F
6HR MIN TEMP:  59; 6HR MAX TEMP:  65;

SOUTH HAVEN    SUNNY     64  43  46 SW16G25   30.17F
$$
MIZ016>042-171900-
NORTHERN LOWER MICHIGAN

CITY           SKY/WX    TMP DP  RH WIND       PRES   REMARKS
ALPENA         SUNNY     67  47  48 SW10      29.99F
6HR MIN TEMP:  46; 6HR MAX TEMP:  67;

BEAVER ISLAND  SUNNY     60  48  65 SW14G22   30.00S
6HR MIN TEMP:  56; 6HR MAX TEMP:  61;

BELLAIRE       SUNNY     61  46  56 SW3       30.02F
6HR MIN TEMP:  50; 6HR MAX TEMP:  63;

CADILLAC       SUNNY     65  43  44 SW17      30.05F
CHARLEVOIX     SUNNY     62  48  61 SW15      30.04F
FRANKFORT      SUNNY     62  48  60 S12G17    30.05F
GAYLORD        SUNNY     61  43  51 W18       30.02S
6HR MIN TEMP:  47; 6HR MAX TEMP:  61;

GRAYLING       SUNNY     64  44  48 SW13      30.04S
6HR MIN TEMP:  47; 6HR MAX TEMP:  64;

HARBOR SPRINGS SUNNY     61  47  60 W12G18    30.00F
HOUGHTON LAKE  SUNNY     63  46  54 SW12      30.05F
6HR MIN TEMP:  48; 6HR MAX TEMP:  64;

MANISTEE       SUNNY     63  47  55 W14       30.06F
OSCODA         SUNNY     68  45  43 W15G29    30.00F
6HR MIN TEMP:  43; 6HR MAX TEMP:  68;

PELLSTON       SUNNY     62  47  57 W14G24    29.99F
6HR MIN TEMP:  53; 6HR MAX TEMP:  62;

ROGERS CITY    SUNNY     65  47  51 W14G20    29.98F
TRAVERSE CITY  PTSUNNY   66  46  48 S9G20     30.02F
6HR MIN TEMP:  53; 6HR MAX TEMP:  66;

$$
MIZ007>008-015-171900-
EASTERN UPPER MICHIGAN

CITY           SKY/WX    TMP DP  RH WIND       PRES   REMARKS
KINROSS        SUNNY     63  41  44 W8        29.95F
6HR MIN TEMP:  50; 6HR MAX TEMP:  63;

MACKINAC ISLAN SUNNY     60  48  64 W15G26    29.97F
6HR MIN TEMP:  55; 6HR MAX TEMP:  60;

NEWBERRY       SUNNY     61  43  51 W10       29.96S
6HR MIN TEMP:  48; 6HR MAX TEMP:  61;

S. S. MARIE    SUNNY     62  45  53 W10       29.95S
6HR MIN TEMP:  50; 6HR MAX TEMP:  62;

MUNISING         N/A     61  46  57 N9        29.96F
6HR MIN TEMP:  44; 6HR MAX TEMP:  62;

$$
MIZ004>006-011>014-085-171900-
CENTRAL UPPER MICHIGAN

CITY           SKY/WX    TMP DP  RH WIND       PRES   REMARKS
MANISTIQUE     SUNNY     62  37  39 S8        29.98S
6HR MIN TEMP:  48; 6HR MAX TEMP:  62;

ESCANABA       CLOUDY    59  47  64 SW7       29.99F
6HR MIN TEMP:  44; 6HR MAX TEMP:  61;

MENOMINEE      SUNNY     65  44  46 VRB6      30.02F
6HR MIN TEMP:  47; 6HR MAX TEMP:  65;

SAWYER-GWINN   SUNNY     66  37  34 W14       29.97F
$$
MIZ001>003-009>011-084-171900-
WESTERN UPPER MICHIGAN

CITY           SKY/WX    TMP DP  RH WIND       PRES   REMARKS
IRON MOUNTAIN  PTSUNNY   68  37  32 W8        29.98F
6HR MIN TEMP:  45; 6HR MAX TEMP:  68;

HOUGHTON       SUNNY     61  43  51 W15       29.96S
6HR MIN TEMP:  50; 6HR MAX TEMP:  61;

COPPER HARBOR    N/A     61  36  39 N13       29.95R
6HR MIN TEMP:  54; 6HR MAX TEMP:  62;

IRONWOOD       MOSUNNY   66  38  35 SW3       29.97F
6HR MIN TEMP:  42; 6HR MAX TEMP:  66;

$$

ABBREVIATIONS USED IN REMARKS
   TC - TEMPERATURE IN CELSIUS
  WCI - WIND CHILL INDEX
   HX - HEAT INDEX
  VSB - VISIBILITY





USA.gov is the U.S. government's official web portal to all federal, state and local government web resources and services.